Powrót do katalogu

FENGYUN 1C DEB

AktywnyPO
NORAD 29794·DEBRIS·🇨🇳 China

Wystrzelony May 10, 1999 z Taiyuan Satellite Launch Center

Loading…

Następne Przeloty (najbliższe 24 godziny)

TLE

ŚwieżeSource: Space-Track

Epoka: Sep 14, 2026, 21:05 UTC

1 29794U 99025CL  26257.87877854  .00000555  00000-0  30385-3 0  9999
2 29794  98.2334  37.5300 0154639 327.5047 186.3948 14.09631350  7262

Śledź FENGYUN 1C DEB w czasie rzeczywistym z AllMySat

Download on the App Store